Hourly Data Report for June 21, 2021

ATIKOKAN (AUT)
ONTARIO
Current Station Operator: ECCC - MSC

48°45'40.000" N
91°37'41.000" W
389.30 m
6020LPQ
71747
WCH

Download Data

Hourly Data (June 2021)
Hourly Data Report for June 21, 2021
TIME
LST
Temp Definition
°C
Dew Point Definition
°C
Rel Hum Definition
%
Precip. Amount Definition
mm

Wind Dir Definition
10's deg

Wind Spd Definition
km/h
Visibility Definition
km
Stn Press Definition
kPa
Hmdx Definition


Wind Chill Definition


Weather Definition


00:00 8.9 5.0 77 0.0 35 7   96.10     LegendNANA
01:00 7.4 2.8 73 0.0 2 6   96.13     LegendNANA
02:00 6.3 2.9 79 0.0 35 5   96.18     LegendNANA
03:00 5.6 2.9 82 0.0 36 4   96.25     LegendNANA
04:00 5.3 3.3 87 0.0 3 2   96.29     LegendNANA
05:00 6.2 4.6 90 0.0 33 5   96.33     LegendNANA
06:00 7.7 4.7 81 0.0 34 7   96.37     LegendNANA
07:00 8.6 4.2 74 0.0 35 7   96.40     LegendNANA
08:00 9.2 3.1 66 0.6 33 13   96.44     LegendNANA
09:00 12.3 3.4 55 0.2 34 13   96.41     LegendNANA
10:00 11.5 4.1 60 0.3 32 11   96.45     LegendNANA
11:00 10.6 4.8 68 0.6 31 8   96.47     LegendNANA
12:00 12.8 3.6 54 0.6 32 16   96.45     LegendNANA
13:00 13.1 3.6 53 0.0 33 10   96.43     LegendNANA
14:00 13.1 2.3 48 0.0 31 14   96.44     LegendNANA
15:00 13.1 1.0 44 0.2 32 13   96.44     LegendNANA
16:00 13.2 1.2 44 0.2 32 13   96.42     LegendNANA
17:00 13.8 2.2 46 0.2 32 12   96.40     LegendNANA
18:00 12.9 3.0 51 0.0 30 11   96.40     LegendNANA
19:00 12.2 3.1 54 0.0 30 8   96.39     LegendNANA
20:00 10.9 4.3 64 0.0 30 7   96.41     LegendNANA
21:00 10.1 4.8 70 0.0 29 3   96.46     LegendNANA
22:00 9.6 5.4 75 0.0 29 5   96.47     LegendNANA
23:00 9.4 5.7 77 0.0 29 3   96.47     LegendNANA

Notes on Data Quality.

Legend

  • E = Estimated
  • M = Missing
  • NA = Not Available*
  • [empty] = Indicates an unobserved value
Date modified: